WetterOnline ( https://www.wetteronline.ch )

Wetter aktuell Klein Heikeland

Aktuelles Wetter: Emden (5m)

6-stündlich | Neueste Meldungen
Ortszeit Temperatur Wetter
Mi, 17.07. 8:00 14.2° C bedeckt
Mi, 17.07. 2:00 14.6° C bewölkt
Di, 16.07. 20:00 15.8° C bedeckt
Di, 16.07. 14:00 16.6° C bedeckt
Di, 16.07. 8:00 14.1° C Sprühregen
Di, 16.07. 2:00 13.9° C bewölkt
Mo, 15.07. 20:00 14.2° C Sprühregen
Mo, 15.07. 14:00 17.6° C bedeckt
Ortszeit Temperatur Wetter
Mi, 17.07. 8:00 14.2° C bedeckt
Mi, 17.07. 7:50 14.2° C bedeckt
Mi, 17.07. 7:40 14.1° C bedeckt
Mi, 17.07. 7:30 14.0° C bedeckt
Mi, 17.07. 7:20 14.0° C bedeckt
Mi, 17.07. 7:10 13.8° C bedeckt
Mi, 17.07. 7:00 13.7° C bedeckt
Mi, 17.07. 6:30 13.4° C bedeckt
Mi, 17.07. 6:00 13.2° C bedeckt
Mi, 17.07. 5:30 12.9° C bedeckt
Mi, 17.07. 5:00 12.9° C bedeckt
Ortszeit Relative Feuchte Sichtweite
Mi, 17.07. 8:00 82% 50 km
Mi, 17.07. 2:00 80% >70 km
Di, 16.07. 20:00 83% 55 km
Di, 16.07. 14:00 77% 65 km
Di, 16.07. 8:00 93% 4.9 km
Di, 16.07. 2:00 85% 35 km
Mo, 15.07. 20:00 85% 24 km
Mo, 15.07. 14:00 59% 65 km
Ortszeit Relative Feuchte Sichtweite
Mi, 17.07. 8:00 82% 50 km
Mi, 17.07. 7:50 82% -
Mi, 17.07. 7:40 83% -
Mi, 17.07. 7:30 83% 55 km
Mi, 17.07. 7:20 83% -
Mi, 17.07. 7:10 85% -
Mi, 17.07. 7:00 87% 45 km
Mi, 17.07. 6:30 87% 60 km
Mi, 17.07. 6:00 89% 50 km
Mi, 17.07. 5:30 93% 45 km
Mi, 17.07. 5:00 91% 30 km
Ortszeit Niederschlagsmenge Niederschlagsart
Mi, 17.07. 8:00 0.1 l/m2 in 12 Std. -
Mi, 17.07. 2:00 0.1 l/m2 in 6 Std. Regen
Di, 16.07. 20:00 0.1 l/m2 in 12 Std. Sprühregen
Di, 16.07. 14:00 0.1 l/m2 in 6 Std. Regen
Di, 16.07. 8:00 0.1 l/m2 in 12 Std. Sprühregen, Niederschlag
Di, 16.07. 2:00 0.1 l/m2 in 6 Std. Sprühregen, Niederschlag
Mo, 15.07. 20:00 0.1 l/m2 in 12 Std. Sprühregen, Niederschlag
Mo, 15.07. 14:00 0.0 l/m2 in 6 Std. -
Ortszeit Niederschlagsmenge Niederschlagsart
Mi, 17.07. 8:00 0.0 l/m2 in 1 Std. -
Mi, 17.07. 7:50 keine Meldung -
Mi, 17.07. 7:40 keine Meldung -
Mi, 17.07. 7:30 0.0 l/m2 in 1 Std. -
Mi, 17.07. 7:20 keine Meldung -
Mi, 17.07. 7:10 keine Meldung -
Mi, 17.07. 7:00 0.0 l/m2 in 1 Std. -
Mi, 17.07. 6:30 0.0 l/m2 in 1 Std. -
Mi, 17.07. 6:00 0.0 l/m2 in 1 Std. -
Mi, 17.07. 5:30 0.0 l/m2 in 1 Std. -
Mi, 17.07. 5:00 0.0 l/m2 in 1 Std. -
Ortszeit Stärke Spitze Richtung
km/h Bft. km/h Grad Sektor
Mi, 17.07. 8:00 4 1 7 290° W
Mi, 17.07. 2:00 7 2 22 320° NW
Di, 16.07. 20:00 15 3 30 310° NW
Di, 16.07. 14:00 20 4 37 300° NW
Di, 16.07. 8:00 13 3 31 290° W
Di, 16.07. 2:00 11 2 31 290° W
Mo, 15.07. 20:00 19 3 35 290° W
Mo, 15.07. 14:00 20 4 33 280° W
Ortszeit Stärke Spitze Richtung
km/h Bft. km/h Grad Sektor
Mi, 17.07. 8:00 4 1 7 290° W
Mi, 17.07. 7:50 4 1 - 290° W
Mi, 17.07. 7:40 4 1 - 310° NW
Mi, 17.07. 7:30 0 0 4 - -
Mi, 17.07. 7:20 2 1 - 340° N
Mi, 17.07. 7:10 2 1 - 330° NW
Mi, 17.07. 7:00 0 0 4 - -
Mi, 17.07. 6:30 4 1 4 360° N
Mi, 17.07. 6:00 4 1 4 310° NW
Mi, 17.07. 5:30 0 0 4 - -
Mi, 17.07. 5:00 4 1 4 360° N
Ortszeit Untergrenze Bedeckung Gattung
total tief tief mittel hoch
Mi, 17.07. 8:00 540 m 8/8 8/8 - - -
Mi, 17.07. 2:00 600 m 7/8 7/8 - - -
Di, 16.07. 20:00 540 m 8/8 8/8 - - -
Di, 16.07. 14:00 480 m 8/8 8/8 - - -
Di, 16.07. 8:00 210 m 8/8 8/8 - - -
Di, 16.07. 2:00 420 m 7/8 7/8 - - -
Mo, 15.07. 20:00 330 m 8/8 8/8 - - -
Mo, 15.07. 14:00 960 m 8/8 8/8 - - -
Ortszeit Bedeckungsgrad in Achtel und Wolkenuntergrenze
Mi, 17.07. 8:00 8(540m) 8(2100m)
Mi, 17.07. 7:50 8(540m) 8(2100m)
Mi, 17.07. 7:40 8(540m) 8(2100m)
Mi, 17.07. 7:30 8(540m) 8(2100m)
Mi, 17.07. 7:20 8(540m)
Mi, 17.07. 7:10 8(570m) 8(2100m)
Mi, 17.07. 7:00 7(570m) 8(2100m)
Mi, 17.07. 6:30 6(600m) 8(2100m)
Mi, 17.07. 6:00 7(600m) 8(2100m)
Mi, 17.07. 5:30 5(600m) 8(2100m)
Mi, 17.07. 5:00 8(600m) 8(2100m) 8(3300m)
Ortszeit Luftdruck NN (hPa) Tendenz (hPa in 3 Std.)
Mi, 17.07. 8:00 1016 - 0,2
Mi, 17.07. 2:00 1017 - 0,3
Di, 16.07. 20:00 1018 0,0
Di, 16.07. 14:00 1018 - 0,1
Di, 16.07. 8:00 1017 - 0,1
Di, 16.07. 2:00 1018 - 0,4
Mo, 15.07. 20:00 1019 - 0,2
Mo, 15.07. 14:00 1019 - 0,1
Ortszeit Luftdruck NN (hPa) Tendenz (hPa in 3 Std.)
Mi, 17.07. 8:00 1016 - 0,2
Mi, 17.07. 7:50 1016 keine Meldung
Mi, 17.07. 7:40 1016 keine Meldung
Mi, 17.07. 7:30 1016 - 0,2
Mi, 17.07. 7:20 1016 keine Meldung
Mi, 17.07. 7:10 1016 keine Meldung
Mi, 17.07. 7:00 1016 - 0,4
Mi, 17.07. 6:30 1016 - 0,5
Mi, 17.07. 6:00 1016 - 0,5
Mi, 17.07. 5:30 1017 - 0,6
Mi, 17.07. 5:00 1017 - 0,5
Ortszeit Schneehöhe (cm)
Mi, 17.07. 8:00 -
Mi, 17.07. 2:00 -
Di, 16.07. 20:00 -
Di, 16.07. 14:00 -
Di, 16.07. 8:00 -
Di, 16.07. 2:00 -
Mo, 15.07. 20:00 -
Mo, 15.07. 14:00 -
Ortszeit Schneehöhe (cm)
Mi, 17.07. 8:00 -
Mi, 17.07. 7:50 -
Mi, 17.07. 7:40 -
Mi, 17.07. 7:30 -
Mi, 17.07. 7:20 -
Mi, 17.07. 7:10 -
Mi, 17.07. 7:00 -
Mi, 17.07. 6:30 -
Mi, 17.07. 6:00 -
Mi, 17.07. 5:30 -
Mi, 17.07. 5:00 -
Link zu dieser Seite / Seite empfehlen

Das Wetter in ...